Wetbulb
65.53 62.30 62.71 60.94 52.49 50.45 47.03 47.02 50.59 49.01 50.78 53.24 55.17 52.54 52.18 53.42 50.38 51.27 67.75 69.78 69.62 68.81 69.71 69.76 71.51 71.81 71.33 71.27 71.55 71.11 70.27 68.89 68.40 67.82 67.38 67.00 66.90 66.94 67.14 67.98 69.20 70.32 70.20 69.46 68.63 67.37 66.44 65.76 65.71
61.73 59.94 61.00 57.30 49.28 45.68 45.84 49.41 47.92 50.38 53.37 53.80 54.12 54.07 53.45 54.38 60.32 63.50 66.15 69.63 70.39 70.35 70.61 70.24 70.61 72.18 71.68 71.58 71.40 70.99 70.21 69.08 68.52 67.94 67.12 66.24 65.91 65.96 66.46 67.46 68.10 69.13 69.28 68.63 67.24 66.51 65.69 65.34 65.70
60.79 58.16 56.90 53.50 49.69 45.39 45.65 48.69 50.27 52.04 54.10 53.32 52.75 55.79 55.19 56.39 61.54 65.50 69.39 69.97 70.51 70.53 71.08 70.92 71.11 72.36 71.97 71.29 70.96 71.00 70.46 69.48 69.11 68.85 68.24 66.42 65.29 65.15 65.86 66.57 67.05 67.47 67.45 66.62 65.70 65.21 64.96 65.03 65.44
59.59 58.10 55.87 49.42 46.99 48.53 47.96 49.57 51.46 52.55 51.76 52.84 54.03 52.35 57.16 61.76 64.55 66.77 69.68 70.05 70.00 70.27 71.13 69.97 71.84 72.49 72.10 71.54 71.42 70.89 69.97 69.62 69.39 68.98 68.32 67.01 64.96 64.45 65.04 65.43 65.96 66.37 65.81 64.74 63.91 63.79 64.03 64.31 64.64
59.16 56.64 50.36 48.16 47.63 48.92 49.87 50.77 52.26 51.39 51.33 51.86 53.48 51.69 54.84 60.93 65.10 67.97 69.32 69.62 69.38 69.96 70.81 70.23 71.14 71.61 71.84 71.80 71.10 71.07 70.67 69.99 69.32 68.69 67.96 67.09 65.60 64.16 64.22 64.35 64.51 64.46 63.49 62.54 62.35 62.66 63.11 63.49 63.42
54.26 54.87 47.88 46.30 47.36 48.93 50.05 51.10 52.26 51.34 51.00 52.53 51.49 52.10 55.39 62.88 64.10 67.16 69.42 69.42 69.99 69.84 70.49 69.82 67.92 69.03 70.19 71.19 70.78 70.63 70.67 70.46 69.57 68.56 67.76 67.09 66.32 65.03 64.33 63.58 63.46 63.25 62.20 61.56 61.19 61.82 62.44 62.77 62.56
53.66 51.34 47.90 48.06 46.70 47.52 49.36 51.93 51.55 51.22 50.27 50.96 53.77 50.82 56.00 60.27 63.90 67.28 68.70 69.56 69.55 69.40 69.80 69.91 70.09 69.05 67.40 68.89 69.08 69.36 69.76 69.92 69.49 68.98 68.34 67.64 66.95 66.30 65.38 64.62 63.33 62.50 61.65 60.75 60.49 61.19 61.92 62.41 62.56
54.46 51.97 48.15 48.23 46.66 46.28 50.41 51.40 52.64 51.65 49.98 53.74 55.31 51.04 51.81 58.97 64.51 67.16 68.37 68.50 68.66 68.67 69.16 69.08 69.62 70.06 69.55 69.73 66.42 67.33 68.23 68.48 68.60 67.77 66.49 65.55 65.42 64.94 64.40 63.21 63.31 62.35 61.39 60.64 60.25 60.65 61.67 61.86 61.54
53.56 48.25 45.99 47.31 47.18 47.65 50.64 49.77 50.85 52.37 51.23 52.22 54.24 53.20 56.62 61.09 64.35 65.60 66.15 66.93 67.52 67.49 69.15 69.70 68.98 69.19 69.12 69.15 67.58 65.57 66.11 66.45 66.19 65.34 63.47 63.28 64.88 64.31 63.95 62.00 62.57 61.84 61.04 60.56 60.45 60.57 60.44 59.51 59.49
51.20 48.06 47.60 50.03 50.05 49.02 49.99 50.16 50.73 49.44 50.04 50.69 51.91 53.59 56.76 61.63 62.35 62.87 63.50 64.04 65.60 67.01 68.28 68.17 69.14 69.44 69.62 69.06 69.28 69.35 69.18 69.04 68.56 67.38 65.78 65.97 65.29 64.87 63.34 60.17 60.53 60.94 60.29 59.29 59.00 59.20 59.56 59.73 59.08
50.71 47.87 49.07 48.70 49.50 50.05 49.87 49.13 50.89 49.30 48.73 51.16 51.20 52.96 54.40 60.05 60.87 61.39 62.81 63.71 64.86 66.49 67.76 68.53 68.24 69.43 69.59 69.14 69.77 69.74 69.72 69.50 69.03 67.90 67.26 66.47 64.71 64.61 63.02 61.13 59.74 58.46 57.11 56.39 56.34 57.00 57.71 58.30 58.23
46.16 47.75 48.22 49.45 50.12 49.13 48.74 50.50 49.02 49.72 51.17 52.87 53.98 54.46 54.07 58.17 59.63 60.76 62.07 63.30 64.35 65.50 66.76 67.66 68.79 68.91 69.46 69.73 69.26 69.56 69.26 69.56 68.91 68.44 67.90 67.43 66.51 64.31 62.99 62.09 61.53 60.42 60.09 58.95 58.39 56.80 56.77 56.14 56.05
46.63 47.28 47.94 49.49 49.11 49.24 48.78 48.63 49.32 50.24 52.68 52.81 52.13 52.10 53.65 56.12 59.11 61.28 62.86 64.06 64.94 64.70 65.92 66.84 68.12 68.27 68.56 68.51 68.68 69.13 69.01 69.26 69.65 69.35 68.45 67.91 65.58 64.47 63.59 62.92 61.10 59.41 59.77 59.22 57.21 56.03 54.39 53.43 53.32
48.66 48.18 48.23 49.06 49.13 49.02 47.50 48.78 48.36 50.68 53.04 52.66 51.65 51.61 52.90 53.99 56.98 59.84 61.48 62.69 64.18 65.45 65.64 66.62 66.87 67.29 67.64 67.32 67.79 68.15 68.49 68.68 68.70 69.25 67.82 66.55 65.33 64.44 63.03 60.91 59.65 58.79 58.85 57.24 54.75 52.44 49.59 50.27 50.29
48.53 46.09 47.55 48.03 48.55 47.95 48.81 46.19 46.62 50.72 50.94 50.79 51.46 51.78 52.71 53.28 54.94 57.58 60.69 62.01 64.02 65.58 65.66 65.77 65.78 66.21 66.38 65.80 66.67 67.17 68.39 68.11 68.65 68.82 68.21 66.22 65.35 64.35 62.63 60.44 58.75 58.47 56.59 54.71 51.20 48.87 48.29 47.64 47.17
46.28 46.52 43.22 47.73 47.73 48.23 48.02 43.01 49.22 50.60 50.68 49.98 51.07 52.02 52.50 53.05 53.56 55.66 59.12 61.46 63.39 64.80 64.66 65.31 63.94 64.01 64.65 64.98 65.62 65.72 66.77 67.46 67.98 68.34 68.17 67.30 65.23 64.75 62.36 60.01 58.40 57.91 53.87 51.03 48.71 47.31 46.33 45.65 45.56
45.98 41.51 43.20 45.06 47.86 47.29 46.62 45.39 49.62 49.73 49.10 49.09 50.54 51.41 52.06 52.87 53.68 54.37 56.54 59.10 60.87 63.24 63.76 64.08 63.10 61.68 62.61 63.36 64.53 65.13 65.94 65.91 66.75 67.20 67.01 66.31 65.95 64.22 62.29 60.36 57.54 55.04 52.77 50.23 48.44 47.91 46.99 44.36 44.44
41.72 41.92 43.03 43.01 45.84 45.50 45.38 45.21 48.35 50.25 49.90 49.60 50.94 51.77 52.28 52.26 52.73 54.51 54.77 56.96 59.40 61.69 62.47 62.37 61.66 60.55 60.99 61.53 61.66 62.46 63.71 62.47 64.75 65.07 63.96 63.90 63.10 62.71 61.10 59.11 56.02 55.08 52.92 51.77 50.16 47.81 46.22 44.05 43.25
43.88 42.85 42.30 44.34 45.66 44.02 44.58 44.96 46.84 49.10 49.47 49.42 50.09 50.60 50.98 52.03 54.35 54.98 55.34 55.52 57.12 58.43 58.22 58.69 58.54 58.39 58.72 58.15 57.91 58.33 57.99 57.71 59.67 61.43 61.26 61.83 61.40 60.73 59.79 56.62 54.21 53.23 51.21 50.09 48.91 47.00 43.65 41.63 42.34
43.75 42.12 42.09 44.88 45.43 43.07 44.14 43.79 46.86 48.19 48.73 49.61 49.91 50.37 51.12 52.10 53.12 54.68 55.01 55.12 54.48 55.65 56.67 56.25 56.05 56.25 56.58 57.59 58.07 58.16 57.76 56.96 56.59 57.02 56.92 57.99 57.22 58.22 56.68 54.46 52.52 51.74 49.80 48.33 46.93 44.46 42.14 40.61 41.46
42.87 41.75 41.98 41.94 43.72 44.58 43.05 42.22 44.76 47.85 49.23 49.96 50.43 51.42 51.46 52.06 52.40 53.57 54.98 54.37 54.87 53.78 54.86 55.08 55.43 55.80 56.26 56.95 57.18 57.15 56.51 55.19 52.70 52.52 52.91 52.39 53.84 54.62 54.14 52.48 51.00 50.52 50.57 47.68 45.72 43.48 42.26 39.93 40.65
39.45 44.78 43.45 42.21 40.52 37.24 43.28 36.09 42.81 45.46 46.25 48.32 49.69 50.68 51.09 52.25 52.93 53.11 54.18 54.58 54.15 54.22 54.92 54.86 55.13 55.26 55.81 56.68 55.69 55.37 52.31 50.89 52.60 53.90 51.62 49.73 50.13 50.27 51.27 51.07 51.11 51.10 51.06 47.99 45.51 44.55 43.88 42.87 39.13
41.75 43.76 42.57 42.05 40.66 40.13 40.33 37.01 41.14 44.96 43.99 46.21 48.50 50.32 51.69 52.83 53.48 53.51 53.87 54.16 54.44 54.75 54.80 54.87 54.61 54.64 55.09 55.59 55.63 54.95 51.96 53.90 54.63 54.42 50.95 49.93 48.08 48.37 46.27 44.27 46.03 48.20 49.58 48.12 46.76 45.26 45.05 44.12 42.16
44.45 43.04 42.45 42.11 40.68 33.50 39.29 38.46 39.25 42.57 44.28 46.43 48.59 50.10 51.36 52.00 52.80 53.07 53.77 54.43 53.64 54.95 54.34 54.31 53.52 53.30 54.28 54.68 54.93 54.32 52.83 53.79 54.30 52.64 51.54 47.85 46.08 43.74 44.44 43.88 44.91 45.81 47.47 48.21 47.56 45.65 45.81 44.91 44.65
43.10 40.53 34.08 32.89 32.75 32.25 39.20 37.58 40.50 44.51 46.20 47.22 47.51 49.12 50.70 51.38 51.29 51.97 51.49 50.30 50.84 51.70 51.88 52.20 52.20 51.88 53.14 53.61 53.71 54.00 53.65 54.41 54.34 51.78 49.95 47.59 44.21 41.66 40.00 40.42 42.40 45.12 46.41 48.19 47.28 44.97 45.07 45.25 44.73
40.10 40.57 35.01 28.68 30.96 34.52 35.43 33.67 39.95 46.76 48.25 48.28 48.29 49.01 50.06 50.55 50.65 50.82 52.33 52.48 51.04 50.13 50.24 50.32 50.37 50.98 51.98 52.57 52.73 53.02 53.50 53.70 54.38 53.94 50.92 47.29 46.31 44.60 41.39 39.86 40.31 41.76 43.31 44.47 45.29 43.63 42.96 44.45 43.86
39.74 36.56 42.89 36.53 34.03 31.65 36.20 40.22 44.23 46.43 45.21 46.76 47.49 48.26 48.99 50.51 51.68 50.83 51.56 52.39 51.46 49.54 49.27 49.72 49.66 50.01 51.05 51.50 52.09 51.66 52.64 52.95 53.10 52.47 53.38 50.72 48.32 46.68 43.53 40.18 38.18 38.61 39.91 41.52 42.60 41.31 40.34 41.36 40.41
41.20 43.27 34.92 35.83 29.52 27.37 33.91 36.23 37.98 43.43 44.90 46.63 47.00 47.89 49.21 50.56 50.89 51.30 51.56 51.56 50.16 49.81 49.66 49.79 49.99 49.37 50.01 50.75 51.17 50.59 51.58 52.20 53.09 51.99 51.10 50.42 49.82 44.79 41.41 37.83 36.09 35.61 37.06 37.06 38.37 37.05 35.58 37.97 37.03
38.33 36.95 38.13 38.56 36.15 30.56 29.73 35.15 44.42 44.28 45.77 46.06 47.74 48.53 49.10 50.05 50.28 50.14 51.13 50.10 49.19 48.80 48.84 48.80 48.87 48.81 48.96 49.84 49.82 49.72 50.37 50.81 50.82 50.21 48.98 47.01 45.13 40.82 38.01 36.51 34.20 33.80 34.48 34.72 35.48 34.84 34.54 34.62 33.88
42.49 39.68 39.36 33.58 31.93 34.95 33.37 34.92 46.04 46.21 46.20 47.09 46.83 48.48 49.43 49.74 49.84 49.50 49.28 48.74 47.62 47.50 47.82 47.96 48.35 48.29 48.76 49.16 48.68 48.39 49.17 48.61 48.10 47.54 46.19 44.34 41.72 38.56 37.60 35.80 34.75 34.11 32.71 32.89 33.82 32.58 33.18 32.52 31.53
MSLP
1012.60 1011.83 1011.41 1010.66 1009.73 1009.00 1008.71 1009.80 1010.40 1011.00 1011.56 1012.28 1012.50 1012.72 1012.79 1013.03 1013.38 1014.52 1015.73 1015.99 1016.26 1017.32 1018.04 1019.06 1019.44 1019.65 1019.82 1020.10 1020.28 1020.34 1020.49 1020.62 1020.68 1020.77 1020.89 1020.89 1020.96 1020.96 1020.96 1021.03 1020.90 1020.68 1020.79 1021.04 1021.37 1021.63 1021.78 1021.85 1021.87
1011.90 1011.64 1011.11 1009.63 1008.88 1008.10 1008.41 1009.73 1010.55 1011.08 1011.97 1012.73 1013.24 1013.38 1013.16 1013.50 1014.35 1015.18 1015.69 1016.29 1016.48 1017.12 1017.80 1018.49 1019.36 1019.70 1019.94 1020.18 1020.43 1020.55 1020.68 1020.85 1020.93 1020.97 1021.11 1021.23 1021.33 1021.28 1021.35 1021.32 1021.40 1021.21 1021.33 1021.66 1022.00 1022.07 1022.27 1022.32 1022.35
1012.24 1011.63 1010.03 1009.12 1008.83 1008.39 1008.73 1009.91 1010.33 1011.80 1012.62 1012.86 1013.15 1013.73 1013.58 1013.97 1014.70 1015.14 1015.43 1016.16 1016.53 1017.09 1017.67 1018.42 1019.39 1019.71 1020.01 1020.33 1020.57 1020.73 1020.89 1021.02 1021.10 1021.18 1021.43 1021.58 1021.61 1021.68 1021.78 1021.77 1021.77 1021.85 1022.00 1022.23 1022.59 1022.64 1022.60 1022.80 1022.81
1011.47 1010.61 1010.06 1009.26 1008.59 1009.07 1009.76 1010.11 1010.75 1012.08 1012.97 1013.31 1013.25 1013.28 1014.45 1014.96 1014.71 1015.13 1015.99 1016.19 1016.63 1017.15 1017.54 1018.86 1019.40 1019.72 1020.04 1020.42 1020.62 1020.82 1021.02 1021.18 1021.29 1021.46 1021.69 1021.75 1021.90 1022.00 1022.21 1022.17 1022.27 1022.45 1022.78 1022.95 1022.96 1023.15 1023.13 1023.22 1023.47
1011.30 1010.13 1009.28 1009.08 1009.20 1009.80 1010.32 1010.73 1011.24 1011.83 1012.27 1012.86 1013.43 1013.28 1014.08 1015.33 1015.60 1015.96 1016.10 1016.37 1016.56 1017.15 1017.68 1018.89 1019.45 1019.73 1020.12 1020.50 1020.72 1020.99 1021.18 1021.34 1021.59 1021.79 1021.96 1022.08 1022.20 1022.41 1022.56 1022.62 1022.78 1023.03 1023.40 1023.50 1023.47 1023.61 1023.79 1023.87 1023.95
1010.42 1010.03 1009.16 1008.71 1008.95 1010.00 1010.59 1011.17 1011.46 1011.75 1012.29 1012.91 1013.43 1013.43 1014.13 1015.17 1015.72 1015.96 1016.19 1016.35 1016.42 1017.17 1017.83 1018.77 1019.60 1019.92 1020.24 1020.58 1020.93 1021.16 1021.37 1021.55 1021.84 1022.05 1022.24 1022.50 1022.62 1022.76 1022.90 1023.05 1023.21 1023.42 1023.73 1023.93 1023.99 1024.18 1024.38 1024.46 1024.49
1010.45 1009.78 1009.20 1009.14 1009.48 1010.02 1010.59 1011.44 1011.65 1011.81 1012.25 1012.68 1013.17 1013.09 1014.08 1015.17 1015.46 1015.99 1016.22 1016.26 1016.46 1017.23 1018.02 1018.67 1019.39 1019.94 1020.43 1020.73 1020.98 1021.35 1021.59 1021.74 1022.03 1022.27 1022.56 1022.83 1022.95 1023.12 1023.19 1023.40 1023.60 1023.76 1024.11 1024.30 1024.49 1024.70 1024.83 1025.02 1025.00
1010.70 1009.88 1009.47 1009.50 1009.48 1010.03 1010.96 1011.65 1011.94 1011.93 1012.30 1013.26 1013.40 1012.88 1013.39 1014.55 1015.56 1016.14 1016.14 1016.23 1016.62 1017.46 1018.01 1018.46 1018.99 1019.63 1020.12 1020.70 1021.12 1021.46 1021.72 1021.91 1022.22 1022.54 1022.91 1023.17 1023.35 1023.48 1023.64 1023.87 1024.02 1024.29 1024.58 1024.87 1025.05 1025.21 1025.39 1025.65 1025.59
1011.32 1010.15 1009.52 1009.56 1010.03 1010.07 1011.28 1011.64 1012.50 1012.86 1012.79 1013.26 1013.53 1013.61 1014.29 1014.55 1015.84 1016.09 1016.23 1016.48 1016.76 1017.37 1017.77 1018.00 1018.77 1019.20 1019.66 1020.12 1020.96 1021.56 1021.77 1022.06 1022.41 1022.80 1023.14 1023.33 1023.38 1023.50 1023.58 1024.32 1024.58 1024.81 1025.02 1025.27 1025.54 1025.83 1026.12 1026.16 1026.10
1011.11 1010.23 1009.76 1010.24 1010.58 1010.78 1011.30 1011.65 1011.99 1012.84 1012.62 1012.86 1013.33 1014.09 1014.82 1015.08 1015.76 1015.91 1016.07 1016.18 1016.56 1017.05 1017.34 1017.76 1018.16 1018.71 1019.18 1019.64 1020.53 1020.95 1021.44 1021.83 1022.11 1022.49 1022.96 1022.82 1023.16 1023.48 1024.09 1024.90 1025.11 1025.28 1025.43 1025.68 1025.90 1026.10 1026.23 1026.02 1026.24
1011.06 1010.56 1010.54 1011.05 1011.72 1011.82 1011.57 1011.81 1012.10 1012.31 1011.86 1011.86 1012.05 1013.04 1014.44 1014.91 1015.28 1015.52 1015.72 1015.91 1016.30 1016.87 1017.25 1017.52 1017.92 1018.28 1018.64 1019.31 1019.97 1020.44 1020.89 1021.13 1021.64 1022.02 1022.40 1022.73 1023.39 1023.83 1024.53 1025.07 1025.38 1025.72 1025.80 1025.92 1026.08 1026.13 1026.17 1026.38 1026.53
1011.48 1011.47 1011.61 1011.99 1012.62 1012.60 1012.19 1011.88 1011.92 1012.04 1011.52 1011.89 1011.68 1012.01 1013.65 1014.26 1014.49 1014.70 1014.99 1015.28 1015.83 1016.30 1016.89 1017.51 1017.55 1018.00 1018.42 1019.00 1019.48 1019.86 1020.35 1020.84 1021.31 1021.78 1022.10 1022.39 1022.85 1023.46 1024.04 1024.49 1024.90 1025.29 1025.43 1025.65 1026.04 1026.51 1026.81 1027.03 1027.20
1011.79 1011.82 1012.31 1012.71 1012.96 1012.93 1013.03 1012.28 1011.91 1011.38 1011.51 1012.10 1012.59 1012.92 1013.08 1013.59 1013.88 1014.32 1014.55 1015.00 1015.40 1015.93 1016.50 1017.31 1017.63 1018.02 1018.57 1019.06 1019.28 1019.57 1020.04 1020.51 1020.71 1021.06 1021.67 1022.08 1022.79 1023.21 1023.59 1023.92 1024.60 1025.37 1025.49 1025.65 1026.09 1026.61 1027.18 1027.58 1027.85
1012.30 1012.34 1012.32 1012.84 1012.96 1013.13 1013.11 1012.27 1012.23 1011.07 1011.14 1011.33 1012.13 1012.44 1012.64 1012.96 1013.27 1013.76 1014.19 1014.46 1014.89 1015.49 1016.04 1016.83 1017.48 1017.85 1018.12 1018.47 1018.68 1019.26 1019.46 1019.83 1020.49 1020.87 1021.44 1022.02 1022.49 1023.02 1023.46 1024.07 1024.76 1025.28 1025.58 1026.01 1026.56 1026.94 1027.51 1027.93 1028.40
1012.75 1012.43 1012.33 1012.41 1012.84 1013.09 1013.32 1012.24 1011.06 1010.77 1011.35 1011.32 1011.36 1011.78 1011.92 1012.24 1012.69 1012.94 1013.39 1013.84 1014.36 1015.01 1015.85 1016.33 1017.05 1017.53 1017.77 1018.23 1018.39 1018.73 1018.94 1019.51 1019.63 1020.15 1020.83 1021.65 1022.07 1022.63 1023.22 1023.83 1024.60 1025.23 1025.71 1026.18 1026.90 1027.40 1027.29 1028.04 1028.69
1012.36 1012.39 1011.73 1011.73 1012.85 1013.29 1013.40 1010.99 1009.86 1010.25 1010.48 1010.85 1010.80 1010.72 1011.00 1011.40 1011.93 1012.35 1012.81 1013.45 1013.96 1014.57 1015.28 1015.98 1016.75 1017.25 1017.58 1017.78 1018.05 1018.40 1018.60 1018.84 1019.07 1019.48 1020.23 1020.87 1021.49 1022.10 1022.90 1023.51 1024.20 1025.03 1025.83 1026.56 1027.11 1027.43 1027.28 1027.95 1028.60
1011.95 1011.19 1011.30 1011.71 1012.67 1012.84 1012.86 1010.76 1009.85 1010.67 1010.84 1010.39 1010.11 1009.93 1009.97 1010.35 1010.97 1011.58 1012.18 1012.77 1013.36 1013.84 1014.69 1015.41 1016.28 1016.89 1017.23 1017.58 1017.79 1018.04 1018.34 1018.69 1018.95 1019.17 1019.79 1020.34 1020.84 1021.42 1022.10 1022.85 1023.76 1024.68 1025.64 1026.50 1026.72 1027.24 1027.12 1027.68 1028.70
1010.87 1011.35 1011.28 1011.76 1012.49 1012.95 1012.20 1010.93 1010.32 1009.95 1010.04 1010.01 1009.61 1009.28 1009.25 1009.52 1009.75 1010.41 1011.28 1012.02 1012.62 1013.25 1014.02 1014.85 1015.69 1016.39 1016.88 1017.41 1017.78 1018.00 1018.26 1019.09 1018.75 1018.96 1019.68 1020.14 1020.55 1021.08 1021.65 1022.45 1023.35 1024.23 1025.12 1025.46 1026.23 1026.87 1027.24 1027.57 1028.54
1011.69 1011.52 1011.47 1011.33 1012.68 1012.97 1011.76 1010.46 1009.75 1009.20 1008.86 1008.78 1008.66 1008.56 1008.48 1008.28 1008.62 1009.43 1010.08 1011.18 1012.11 1012.83 1013.48 1014.07 1014.85 1015.62 1016.34 1016.83 1017.27 1017.70 1018.13 1019.18 1019.36 1019.23 1019.64 1019.92 1020.30 1020.71 1021.22 1022.07 1022.94 1023.82 1024.54 1025.31 1025.60 1026.35 1027.02 1027.72 1028.51
1012.22 1012.10 1011.74 1011.71 1012.61 1013.32 1011.71 1009.84 1009.15 1008.70 1007.75 1007.83 1007.71 1007.38 1007.31 1007.27 1007.57 1008.10 1009.10 1010.07 1011.14 1011.82 1012.56 1013.38 1013.99 1014.85 1015.52 1016.13 1016.73 1017.23 1017.80 1018.53 1019.24 1019.50 1019.74 1019.95 1020.22 1020.43 1020.98 1021.59 1022.55 1023.28 1024.24 1025.15 1025.61 1025.84 1026.91 1027.53 1027.89
1012.50 1012.30 1012.13 1012.14 1012.92 1012.95 1012.03 1009.42 1007.81 1006.82 1006.66 1007.00 1006.85 1006.61 1006.62 1006.35 1006.49 1007.09 1008.00 1009.27 1010.32 1011.15 1011.72 1012.31 1013.02 1013.89 1014.75 1015.48 1016.19 1016.82 1017.48 1018.15 1018.97 1019.19 1019.38 1019.71 1020.01 1020.29 1020.59 1021.28 1022.04 1022.69 1023.20 1024.34 1024.93 1025.20 1025.62 1026.50 1027.52
1012.81 1012.57 1012.94 1012.85 1013.26 1012.47 1012.24 1008.77 1006.97 1006.31 1005.79 1005.71 1005.68 1005.75 1005.54 1005.64 1006.16 1006.69 1007.09 1008.09 1009.33 1010.22 1011.11 1011.82 1012.50 1013.15 1013.92 1014.79 1015.28 1015.66 1016.30 1016.86 1017.28 1017.89 1018.65 1019.39 1019.86 1020.14 1020.36 1020.84 1021.48 1021.77 1022.61 1023.70 1024.00 1024.41 1024.98 1025.39 1026.33
1013.53 1013.82 1013.74 1013.71 1013.55 1013.04 1012.01 1010.76 1006.49 1005.75 1004.87 1004.92 1004.84 1004.64 1004.79 1005.00 1005.44 1006.02 1006.84 1007.76 1008.59 1009.80 1010.70 1011.48 1012.18 1012.84 1013.48 1014.16 1014.59 1014.97 1015.65 1015.87 1016.38 1017.29 1018.04 1018.85 1019.54 1019.88 1020.33 1020.88 1021.27 1021.67 1022.07 1022.72 1023.26 1023.73 1024.40 1024.82 1025.46
1014.49 1014.49 1014.44 1014.36 1014.03 1012.62 1010.82 1010.10 1005.08 1004.88 1004.08 1003.87 1004.30 1004.38 1004.64 1004.97 1005.51 1006.03 1006.84 1007.59 1008.41 1009.37 1010.28 1011.05 1011.66 1012.18 1012.83 1013.46 1014.03 1014.47 1014.89 1015.19 1015.75 1016.67 1017.33 1018.35 1019.19 1019.68 1019.92 1020.73 1021.10 1021.52 1021.77 1022.11 1022.66 1023.31 1023.78 1024.27 1024.88
1014.63 1014.33 1014.04 1013.92 1013.62 1011.37 1010.82 1009.64 1004.95 1005.02 1004.64 1004.60 1004.68 1004.68 1004.76 1005.33 1005.96 1006.33 1006.95 1007.83 1008.47 1009.13 1009.98 1010.65 1011.21 1011.61 1012.28 1013.00 1013.59 1013.99 1014.47 1014.75 1015.04 1015.85 1016.66 1017.54 1018.39 1019.06 1019.70 1020.22 1020.74 1020.99 1021.39 1021.70 1022.24 1023.06 1023.56 1023.92 1024.38
1014.03 1013.47 1013.06 1012.37 1012.60 1011.45 1011.46 1008.52 1004.95 1004.98 1004.80 1004.99 1005.29 1005.17 1005.19 1005.56 1006.10 1006.54 1006.86 1007.36 1008.16 1009.00 1009.76 1010.37 1010.75 1011.12 1011.56 1012.08 1012.77 1013.63 1014.05 1014.26 1014.51 1014.98 1015.93 1016.75 1017.27 1017.96 1018.79 1019.68 1020.20 1020.68 1021.14 1021.59 1021.86 1022.89 1023.42 1023.60 1024.20
1013.58 1013.29 1012.64 1012.99 1013.03 1012.75 1010.23 1006.92 1005.19 1004.93 1005.21 1005.17 1005.16 1005.16 1005.21 1005.49 1005.77 1006.34 1006.70 1007.20 1008.05 1008.94 1009.50 1009.97 1010.53 1011.10 1011.55 1011.99 1012.39 1012.80 1013.38 1013.70 1013.93 1014.52 1014.93 1015.63 1016.36 1017.05 1017.85 1018.75 1019.56 1020.19 1020.69 1021.10 1021.57 1022.53 1023.16 1023.57 1024.03
1012.95 1012.82 1013.30 1013.27 1012.71 1011.65 1008.85 1007.17 1004.93 1004.48 1004.55 1004.70 1005.05 1005.23 1005.16 1005.55 1005.86 1006.07 1006.53 1007.19 1008.06 1008.76 1009.36 1009.95 1010.31 1010.78 1011.18 1011.51 1012.01 1012.60 1012.71 1013.09 1013.47 1014.09 1014.44 1015.06 1015.84 1016.56 1017.39 1018.36 1019.06 1019.66 1020.25 1020.83 1021.40 1022.26 1023.03 1023.46 1024.02
1013.14 1012.90 1012.66 1012.31 1011.91 1010.48 1009.14 1006.19 1004.66 1004.04 1004.22 1004.74 1005.29 1005.76 1005.80 1005.79 1006.03 1006.25 1006.53 1007.48 1008.04 1008.76 1009.41 1009.80 1010.07 1010.55 1010.99 1011.24 1011.68 1012.07 1012.53 1012.84 1013.18 1013.47 1013.99 1014.86 1015.59 1016.27 1017.17 1017.90 1018.61 1019.22 1019.87 1020.51 1021.16 1021.93 1022.60 1023.05 1023.81
1011.84 1011.32 1011.87 1011.72 1011.11 1011.04 1010.06 1006.57 1004.39 1004.56 1004.77 1005.24 1005.52 1005.64 1005.94 1006.22 1006.27 1006.56 1007.02 1007.71 1008.27 1008.73 1009.12 1009.61 1009.83 1010.28 1010.63 1011.10 1011.40 1011.42 1012.04 1012.63 1013.00 1013.35 1013.88 1014.54 1015.14 1015.98 1016.82 1017.60 1018.30 1018.94 1019.67 1020.33 1020.89 1021.66 1022.25 1022.56 1023.32
Wind_Speed
11 7 6 6 6 4 1 4 2 7 5 5 3 2 8 7 7 6 13 8 15 15 14 13 9 8 10 12 12 13 13 14 15 15 14 14 14 15 15 14 12 15 19 20 19 18 18 19 19
7 6 6 4 6 5 7 6 6 7 8 5 4 3 3 6 5 10 13 9 14 13 12 13 10 10 10 12 12 13 14 14 15 15 15 15 14 15 15 15 13 16 19 19 18 18 19 19 19
6 6 7 3 3 4 5 3 6 7 6 5 4 3 3 6 4 14 12 14 14 12 12 11 11 11 12 13 13 13 13 14 14 15 15 15 15 15 15 16 15 16 18 18 17 18 19 18 18
4 5 4 7 5 4 5 1 8 9 4 3 2 4 3 5 11 8 14 15 13 12 12 14 12 12 12 13 13 14 14 14 14 14 15 15 16 16 15 16 16 17 17 17 18 18 18 18 17
5 3 5 4 5 2 1 1 7 8 7 8 5 4 2 6 8 7 14 13 13 12 11 13 10 11 11 13 13 13 13 13 14 14 15 15 16 16 16 17 17 18 17 17 18 18 18 18 17
6 4 6 6 1 1 1 4 7 7 4 6 5 3 5 12 11 11 11 13 12 12 11 12 10 9 11 12 13 12 12 13 14 14 14 15 16 16 17 17 17 18 18 18 18 18 18 18 17
12 6 9 4 4 3 2 6 8 8 6 7 2 4 6 12 11 11 13 14 12 11 11 12 12 10 8 9 11 11 11 13 13 13 13 13 13 15 16 15 17 18 18 18 18 18 19 18 18
6 4 7 7 6 3 5 7 4 7 5 4 2 2 4 14 12 12 13 13 13 11 11 12 12 12 11 11 9 10 10 10 11 12 12 11 12 13 13 12 15 17 18 18 18 18 19 18 15
3 6 8 8 5 1 7 9 3 4 5 4 6 3 4 16 14 14 13 13 12 11 14 14 11 13 11 12 10 9 10 10 11 12 11 12 9 11 11 12 14 17 18 18 18 18 18 17 13
6 8 7 4 3 2 7 9 8 6 11 10 9 6 5 14 14 16 16 16 16 16 15 11 13 14 14 9 13 12 11 10 11 11 13 5 6 6 11 10 12 14 16 18 17 15 11 9 8
3 9 3 2 1 2 5 8 4 9 13 11 12 14 12 15 16 17 17 17 17 16 13 14 12 13 13 9 9 7 6 7 8 11 11 8 7 9 7 7 7 8 10 8 9 7 5 7 6
7 1 2 2 2 2 4 1 6 14 15 7 8 5 16 17 18 19 18 17 17 17 17 14 15 12 12 8 7 8 7 7 7 9 12 8 6 7 9 7 7 7 4 8 7 5 7 8 9
7 3 3 2 3 3 2 7 8 13 14 5 1 4 15 15 17 16 16 16 16 17 16 16 14 13 12 11 7 8 8 6 7 9 11 8 7 7 7 6 6 4 4 5 7 8 7 8 9
2 4 4 4 5 3 5 7 1 7 11 15 12 12 13 15 17 16 16 17 17 16 17 17 16 15 13 12 12 9 8 9 7 7 9 10 8 7 7 7 7 7 5 5 6 8 7 6 7
2 5 6 9 6 4 4 10 17 14 4 9 16 14 15 15 15 18 18 18 18 15 16 17 17 16 15 14 12 9 8 9 8 8 12 13 10 9 9 8 7 7 5 7 8 8 9 7 7
4 4 8 7 7 4 6 12 5 1 10 15 16 14 15 16 17 17 17 16 17 17 18 17 12 15 15 13 11 8 8 8 8 7 8 15 13 13 10 9 8 9 7 7 7 7 8 8 8
6 8 9 6 6 2 11 9 1 2 6 13 13 15 15 16 17 17 17 17 18 19 19 17 17 17 16 13 10 11 10 8 9 8 6 12 13 13 11 9 9 11 8 7 8 8 8 9 8
9 8 7 9 6 7 10 17 17 13 11 12 13 14 14 15 19 18 18 17 17 17 17 17 15 17 15 10 9 8 7 4 7 8 9 10 11 12 10 9 11 11 9 10 9 10 7 9 9
4 6 8 3 4 5 12 19 18 17 18 18 19 19 19 20 18 16 16 16 16 16 17 18 17 16 12 10 9 9 9 7 6 4 5 8 8 11 12 9 11 10 11 9 12 11 12 9 10
8 12 14 13 3 4 14 21 18 18 22 20 20 21 20 20 18 16 16 16 18 18 18 17 17 17 15 10 9 8 8 8 8 5 6 7 7 10 10 12 11 12 9 10 12 13 8 7 11
13 15 12 13 2 13 14 19 18 17 16 14 20 21 21 21 19 17 15 17 15 18 19 19 19 17 16 15 10 8 6 4 7 7 6 6 7 8 10 12 12 12 12 11 13 13 12 10 11
16 11 13 11 7 8 1 11 17 17 17 16 16 17 19 18 15 15 13 16 17 17 16 17 17 18 16 17 13 16 11 9 9 10 5 6 8 8 9 11 12 14 11 13 13 12 10 10 12
3 4 3 4 7 10 13 10 9 13 14 15 17 17 15 13 12 11 11 11 13 12 13 13 14 15 16 16 16 13 14 9 7 8 10 9 7 9 9 8 10 10 10 12 13 13 12 9 11
11 6 4 2 3 10 12 13 13 15 14 8 7 7 5 5 4 5 5 5 9 8 10 11 14 16 16 16 17 16 15 13 9 10 9 8 7 6 8 10 11 9 8 10 11 11 13 11 10
10 8 4 6 7 12 6 6 18 13 14 9 11 12 13 2 5 5 8 8 9 11 11 11 14 15 15 16 16 16 15 14 14 13 10 11 8 5 9 10 10 10 11 11 11 9 10 10 10
15 14 8 9 8 12 4 12 9 2 8 9 9 14 13 8 7 8 7 7 9 9 11 13 14 14 15 16 16 14 15 10 11 12 10 9 9 9 11 11 11 10 10 9 9 8 6 9 8
9 13 13 11 1 5 11 21 21 15 10 13 17 16 15 12 8 9 9 8 7 9 11 12 12 12 13 13 13 14 13 15 12 13 11 10 11 9 12 12 11 10 10 10 10 8 8 8 7
8 2 7 8 7 11 16 21 16 10 13 11 12 9 13 7 7 7 7 5 5 6 8 9 10 11 11 12 12 12 14 14 12 12 12 11 10 9 11 12 12 11 11 9 9 6 7 10 7
9 10 8 5 9 7 12 13 13 15 6 5 4 4 9 8 5 3 3 3 5 5 6 8 9 10 10 11 12 12 12 13 12 12 12 11 10 11 12 13 12 12 12 11 10 10 11 12 10
17 21 21 10 11 7 11 19 14 4 4 4 7 9 5 5 6 2 2 3 3 5 6 8 8 10 9 10 11 12 12 12 13 12 12 12 11 10 11 11 12 12 11 12 11 12 11 13 13
Wind_Direction
270 270 274 252 243 238 8 135 40 141 150 74 49 308 9 18 2 29 138 131 143 156 159 171 178 155 142 124 119 110 106 103 100 99 97 93 91 93 92 88 84 86 86 86 83 81 81 80 80
304 287 241 276 264 268 96 116 177 156 73 133 146 201 223 78 69 125 139 158 146 159 161 169 161 150 140 130 128 117 114 111 107 103 97 97 96 93 94 95 92 89 88 85 87 86 82 82 82
261 257 266 281 292 311 26 158 159 106 133 171 163 279 353 93 126 149 113 155 149 153 156 137 146 143 140 140 131 119 118 114 111 104 104 101 98 96 96 95 90 90 89 89 91 90 89 84 84
255 201 217 259 318 49 343 214 124 147 154 190 283 182 135 10 143 129 146 154 157 155 158 131 146 144 145 145 136 130 127 123 115 111 109 106 105 103 100 98 95 93 92 95 93 90 88 88 83
231 256 252 261 312 360 112 19 168 179 148 167 188 132 104 161 116 142 155 162 163 158 150 151 152 152 149 148 144 142 138 132 123 117 112 111 110 109 107 104 102 100 98 95 92 92 90 87 84
219 282 242 235 76 73 162 167 201 192 165 123 196 179 122 146 165 159 169 174 165 160 148 153 157 152 150 151 154 151 149 138 132 124 117 115 114 111 109 106 105 103 100 97 95 95 92 86 82
255 222 255 302 307 277 197 163 209 202 191 195 349 221 98 168 172 164 173 180 171 160 164 159 169 164 149 149 154 159 156 143 137 130 120 114 110 108 104 104 106 105 104 102 101 100 94 89 85
274 255 250 244 274 291 132 168 256 226 208 83 245 213 171 172 157 171 177 177 179 157 179 175 172 173 173 168 156 161 160 150 139 124 109 103 100 101 98 102 105 107 106 104 103 101 97 92 79
272 237 239 253 249 270 136 192 168 3 254 215 189 291 67 143 159 174 178 182 191 179 188 184 167 181 180 174 166 161 161 154 134 127 130 147 134 128 133 93 111 113 111 106 103 102 100 91 67
241 232 250 33 321 268 169 209 175 224 218 226 210 173 156 150 176 182 189 191 192 194 193 188 183 188 189 174 162 177 172 176 171 164 165 161 143 103 112 102 105 109 110 110 109 112 133 129 104
182 248 69 147 289 275 183 205 205 232 250 239 225 188 178 179 188 196 199 200 198 194 199 195 194 193 188 182 167 184 179 179 180 171 183 146 120 132 128 132 129 124 132 121 125 138 91 91 93
235 243 265 96 154 220 200 212 215 230 240 3 259 254 177 190 195 200 203 204 197 200 195 201 199 197 197 180 193 189 182 190 184 186 188 172 159 155 151 159 155 151 167 139 123 105 101 94 92
236 169 183 145 179 233 320 236 242 252 246 201 267 221 191 203 205 209 210 209 203 204 199 195 204 194 203 197 196 194 195 194 197 186 189 176 161 166 161 165 143 158 166 147 135 129 114 105 101
72 204 183 194 203 218 249 249 256 232 252 235 216 221 218 214 213 208 212 211 210 206 201 200 199 203 201 206 206 199 213 202 197 188 178 177 168 165 160 146 154 158 149 122 128 132 116 109 105
171 225 212 211 205 225 246 244 240 240 187 247 233 232 231 222 220 216 211 213 208 206 206 201 201 202 205 203 210 215 207 210 203 202 190 184 173 171 168 154 151 152 136 124 120 137 123 119 115
221 244 234 124 179 166 225 264 238 337 211 242 243 238 232 230 226 223 220 214 215 208 207 201 195 204 205 208 207 207 215 220 219 200 196 190 181 175 170 163 157 155 135 133 140 152 131 128 130
200 261 214 199 202 194 216 281 201 103 241 255 252 248 242 237 228 223 218 217 213 208 204 204 199 204 205 211 215 218 212 211 220 218 186 198 193 175 170 165 153 152 149 154 154 161 145 132 129
231 226 226 257 138 226 243 256 270 264 237 257 262 257 248 244 240 229 216 213 213 210 209 206 203 205 204 203 212 219 205 248 241 196 206 194 188 176 163 157 153 162 162 159 162 156 147 133 137
288 293 267 259 119 285 262 270 268 273 270 265 258 255 257 253 240 227 220 208 208 209 207 205 202 201 197 196 197 206 202 212 234 225 193 185 185 171 164 157 156 163 159 177 161 151 146 138 141
245 255 260 272 103 250 280 279 277 271 263 257 260 259 256 255 247 230 213 206 201 206 205 204 205 199 200 195 198 207 201 210 219 208 203 204 180 172 166 158 167 166 153 162 166 158 148 147 161
232 245 255 263 323 238 284 273 266 249 247 264 260 261 262 258 253 238 206 207 206 208 204 205 202 198 198 199 192 196 199 188 201 202 191 194 188 176 167 168 169 167 161 171 175 168 166 160 183
255 244 254 270 280 271 293 288 288 288 273 252 255 248 252 251 246 248 249 198 206 214 212 204 200 200 200 195 196 194 197 199 209 204 181 178 188 180 174 173 178 173 179 174 176 175 179 160 176
245 34 254 271 265 299 236 268 262 250 261 260 260 263 265 267 261 248 229 239 208 208 209 206 204 203 199 200 206 197 208 214 197 193 172 186 184 181 171 163 168 176 185 174 173 176 187 175 174
131 118 117 190 278 263 248 226 265 249 267 265 264 271 258 280 288 240 235 219 213 203 193 198 202 205 203 203 206 207 213 212 196 198 188 187 189 176 170 178 181 179 174 177 176 182 189 179 184
199 185 228 239 199 254 68 277 247 298 288 267 279 294 295 294 264 215 200 198 205 197 192 196 203 207 203 207 213 213 222 218 209 197 197 185 180 186 181 179 185 184 185 185 176 175 192 186 192
198 203 207 231 239 265 106 238 263 260 308 314 269 272 286 271 247 256 237 202 190 191 194 198 203 208 204 205 210 216 220 222 218 207 192 198 193 187 170 185 186 185 180 175 167 173 183 188 182
177 221 245 272 348 281 251 265 272 253 227 265 276 284 284 288 264 240 238 225 200 192 195 198 199 210 212 211 211 212 216 219 214 215 209 194 190 183 176 180 180 178 177 176 168 170 177 177 171
239 225 197 215 222 233 255 256 259 284 280 270 276 281 298 316 306 252 230 202 188 198 191 197 202 209 211 209 211 220 216 215 212 211 206 199 192 162 166 174 178 172 172 162 162 159 158 162 156
187 220 223 249 228 245 252 257 273 276 339 355 358 319 314 315 327 315 245 201 182 187 196 199 197 209 211 209 211 217 219 215 211 213 201 197 182 170 177 179 174 174 171 168 162 164 165 158 151
242 226 218 220 221 242 271 270 251 280 304 311 286 300 286 306 320 320 240 227 220 213 204 213 206 215 212 217 217 212 212 212 217 212 202 189 179 171 178 177 178 176 173 171 168 162 168 158 155